Wind_Speed
8 8 7 6 5 5 5 4 3 3 2 1 1 1 1 1 0 0 0 1 1 1 1 1 2 2 3 3 2 2 1 2 4 4 4 4 4 4 5 5 5 5 4
9 8 7 6 5 5 4 4 4 3 2 2 2 2 1 1 0 0 0 1 1 1 1 2 2 2 2 3 2 2 2 2 3 4 4 4 5 5 5 5 5 5 5
8 8 8 7 6 5 4 4 3 3 3 2 2 2 2 1 1 0 0 1 1 1 1 2 2 2 3 3 3 2 2 2 2 3 4 5 6 5 5 6 6 6 5
8 8 8 8 6 5 4 4 4 4 3 3 3 3 2 2 1 1 1 1 1 1 1 1 2 3 3 3 3 2 2 2 2 3 4 5 4 4 5 5 6 6 6
8 8 8 8 7 5 3 4 4 4 4 3 4 4 3 2 2 1 1 1 1 2 2 2 2 2 3 3 3 3 3 3 3 3 3 4 3 3 4 5 5 6 6
8 8 9 9 8 6 4 4 4 5 4 4 4 4 3 3 2 1 1 1 2 2 2 2 2 2 2 3 3 3 4 3 3 3 3 3 4 5 5 6 6 6 6
9 9 9 9 8 6 5 5 5 5 5 4 4 4 3 3 3 2 2 2 2 2 2 1 1 2 2 3 3 3 3 4 3 4 4 5 5 5 5 6 6 6 6
9 9 9 9 9 8 6 6 5 5 5 5 5 4 3 3 3 3 3 2 2 1 1 1 1 1 2 2 3 3 3 4 4 4 4 5 6 5 5 5 6 6 7
9 9 10 10 9 8 7 6 6 6 6 6 5 5 3 3 3 3 2 2 2 2 1 2 2 2 2 2 3 3 4 4 5 6 6 6 6 5 5 4 5 6 7
9 9 9 9 9 8 8 7 7 6 6 6 5 4 4 4 3 3 3 2 2 1 2 3 3 2 2 3 4 4 5 5 6 6 7 6 6 6 6 6 6 6 7
10 10 10 9 9 9 8 8 7 7 7 6 6 5 4 4 4 4 3 3 3 2 2 3 3 3 3 4 4 5 5 5 6 6 7 6 6 6 7 7 7 7 8
10 10 10 10 10 9 9 8 8 7 7 6 6 5 4 4 4 4 4 3 3 2 2 3 3 3 4 4 5 5 6 6 7 7 7 7 6 6 6 7 7 8 8
11 10 10 10 10 10 10 10 8 8 7 6 6 6 5 5 5 4 4 4 4 3 3 3 3 3 4 5 5 5 6 6 6 6 6 6 5 5 5 7 8 8 8
11 11 11 11 10 10 11 10 9 8 7 6 6 6 6 6 6 5 4 4 4 3 3 3 3 3 4 4 5 5 6 6 6 7 6 5 5 5 5 6 6 7 7
11 10 11 11 11 11 11 11 10 9 8 7 6 7 7 7 6 6 6 4 4 4 4 4 4 4 5 5 5 6 6 6 6 6 6 5 6 6 5 5 6 6 7
11 11 11 11 11 11 11 11 10 9 9 9 8 7 7 7 7 6 7 6 5 5 5 5 5 5 5 6 6 6 6 6 7 7 7 5 6 7 6 6 7 7 8
12 12 12 12 12 12 12 11 11 10 10 9 8 8 8 7 7 7 7 7 7 6 6 6 6 6 6 6 7 7 6 7 7 7 7 7 6 7 7 5 6 8 9
14 14 13 13 12 12 12 11 11 10 10 10 9 8 8 8 8 8 7 7 8 7 7 7 7 7 7 8 8 8 7 7 7 8 8 8 6 6 7 6 6 7 8
14 15 14 14 14 13 12 12 12 11 11 11 11 9 9 9 9 9 8 8 8 8 7 7 8 8 8 8 9 9 8 8 8 8 8 8 8 8 7 7 7 6 6
16 15 15 15 15 14 13 13 12 12 12 12 12 11 11 10 10 11 10 10 9 8 8 8 8 8 9 9 9 9 9 9 9 9 9 8 9 9 9 9 9 8 7
17 16 16 16 16 15 14 13 13 13 13 13 13 12 11 11 12 12 11 10 9 9 9 9 10 9 9 9 9 10 10 10 10 10 9 8 9 9 10 9 9 9 9
18 18 18 18 17 16 15 14 13 13 14 14 13 13 12 12 12 12 12 10 10 10 10 10 10 10 10 10 10 10 10 10 10 11 10 9 9 10 9 9 10 9 10
19 19 19 19 18 17 17 16 15 16 16 15 15 14 13 13 13 13 12 12 11 11 11 11 11 11 11 11 11 11 10 10 10 10 11 11 11 10 10 10 10 10 11
20 19 19 20 19 19 19 18 17 17 16 16 16 16 15 14 14 14 14 13 12 11 11 11 11 12 12 12 12 12 11 11 11 11 11 12 12 12 12 12 11 12 12
22 21 20 20 21 20 20 20 19 18 18 18 18 17 17 16 15 15 14 14 13 12 12 12 12 13 13 13 12 12 12 12 12 12 12 13 13 13 13 12 13 14 14
23 22 22 22 22 22 21 20 20 19 20 20 19 18 17 17 16 16 15 15 14 13 13 13 13 14 14 14 13 13 13 13 13 14 14 14 15 15 15 15 15 16 15
Wind_Direction
360 358 356 355 356 354 356 1 360 2 357 355 347 356 11 28 347 266 190 210 205 118 132 188 194 182 172 172 168 165 182 200 219 211 215 218 216 214 208 203 207 201 196
355 357 354 351 352 354 353 355 357 356 351 347 338 349 352 357 1 311 215 210 241 260 207 175 184 185 189 183 183 183 201 219 225 221 223 228 225 217 213 215 214 207 207
356 358 356 352 347 346 347 344 343 347 342 334 329 334 333 325 299 285 286 249 257 277 257 195 163 197 202 198 205 206 206 217 225 230 228 225 226 231 227 222 219 214 211
356 358 355 351 344 338 336 339 334 338 339 332 329 329 323 315 307 285 279 265 275 276 239 214 204 190 194 208 218 215 227 231 247 249 241 239 240 244 238 227 225 219 218
354 359 356 354 354 348 348 341 335 336 339 336 329 322 320 316 320 289 270 284 283 274 247 225 212 206 201 216 228 231 242 243 248 247 253 255 265 262 249 233 228 219 219
353 358 357 0 2 2 1 350 343 339 337 336 331 328 323 310 302 291 285 274 266 279 262 238 235 249 252 249 248 244 244 251 261 260 268 269 269 263 253 236 229 224 220
353 356 356 359 3 1 355 352 351 348 343 337 330 329 317 300 290 288 268 259 256 273 274 246 284 279 283 277 277 280 274 267 276 280 270 273 270 259 251 233 228 225 222
353 355 354 353 353 350 350 349 346 343 341 344 337 331 319 295 281 280 264 262 261 284 274 273 301 329 317 301 298 295 285 275 274 283 280 280 273 270 255 237 228 236 236
351 352 353 350 347 350 352 347 344 343 343 340 339 336 320 294 278 275 274 284 288 278 258 259 262 303 311 306 304 300 287 282 285 284 288 285 276 265 254 244 234 241 243
348 350 352 351 347 347 347 345 342 346 343 338 336 331 321 306 298 283 277 281 271 257 275 268 274 289 299 296 294 293 286 288 289 290 290 285 274 262 252 246 240 243 247
341 345 350 349 344 344 344 341 340 340 338 337 338 336 326 313 303 301 287 291 284 285 286 274 272 277 288 295 292 293 292 288 288 293 296 293 276 262 257 252 246 248 250
334 337 343 345 341 339 340 340 336 338 342 338 333 337 332 319 312 303 297 286 285 270 274 279 276 264 271 285 292 295 295 293 293 299 301 299 276 261 257 255 251 253 254
328 331 335 339 338 335 333 335 334 335 336 335 336 338 332 320 309 300 297 284 273 265 277 283 280 272 272 278 287 294 295 298 304 305 303 297 278 268 260 259 258 256 254
320 321 325 331 333 334 333 333 334 332 331 329 335 338 333 329 318 309 300 287 283 270 265 265 269 264 278 289 294 299 301 301 304 306 300 300 291 280 272 262 266 257 254
312 312 315 320 326 330 331 332 332 332 331 330 333 338 335 328 320 312 311 301 293 282 269 266 264 267 275 286 296 304 305 301 299 311 309 301 298 289 287 276 270 269 264
305 304 308 314 319 321 323 323 325 326 326 328 329 332 333 331 322 320 317 312 307 293 273 272 272 273 277 284 293 303 308 310 302 313 312 305 298 297 292 285 274 266 266
297 297 301 306 309 313 313 314 316 319 321 322 323 324 325 326 324 322 318 313 311 305 287 280 280 277 281 283 289 295 301 307 311 312 308 304 301 293 293 287 276 267 263
288 289 294 298 302 304 306 306 309 314 317 319 319 317 317 317 317 317 315 311 310 308 295 290 290 290 289 287 291 292 296 305 308 309 309 303 304 299 291 292 289 275 265
282 283 287 292 295 297 299 300 302 305 310 315 316 312 309 309 310 310 312 309 308 303 296 293 293 292 293 293 292 292 294 301 304 307 309 309 305 302 303 299 296 284 275
279 280 280 285 287 289 291 294 294 298 302 306 309 308 304 303 303 304 302 301 298 299 295 293 294 292 293 297 294 294 297 298 299 302 305 308 308 307 311 306 300 294 290
277 276 278 279 283 283 285 290 291 294 297 301 304 304 301 301 299 301 299 299 298 295 290 291 293 292 295 297 299 298 296 294 294 295 299 302 303 303 305 306 304 302 300
273 273 275 276 278 278 278 282 288 291 293 297 301 302 300 301 301 301 297 292 293 291 289 290 289 288 293 296 298 297 294 292 292 293 293 297 299 299 300 301 300 299 301
269 270 271 275 276 274 275 278 285 289 291 294 297 297 299 300 297 298 298 292 292 289 288 287 287 287 290 293 292 290 289 289 289 288 289 294 297 297 295 296 295 291 295
270 268 267 271 272 271 273 275 280 286 288 290 292 293 294 296 296 293 295 295 291 293 292 289 286 285 286 287 287 286 286 287 283 284 287 290 291 292 292 290 293 293 294
267 269 268 270 269 269 272 274 276 280 285 287 289 291 292 293 295 292 291 294 294 294 296 293 289 285 286 286 288 289 289 286 284 283 285 286 287 287 287 286 289 291 291
266 267 268 269 269 268 270 273 273 277 281 283 285 287 288 290 293 294 292 288 287 291 293 293 290 286 285 286 286 286 287 286 285 284 283 283 283 283 284 284 286 286 287
Height
5885 5884 5883 5881 5880 5880 5879 5878 5877 5876 5875 5874 5874 5873 5873 5872 5872 5872 5872 5871 5871 5871 5871 5870 5870 5871 5871 5872 5873 5874 5874 5875 5875 5875 5876 5877 5878 5879 5879 5880 5881 5882 5883
5885 5884 5883 5881 5880 5880 5879 5878 5877 5876 5875 5875 5874 5873 5873 5873 5872 5872 5872 5872 5871 5871 5871 5871 5871 5871 5872 5872 5873 5874 5874 5874 5875 5875 5876 5877 5877 5878 5879 5880 5881 5882 5882
5885 5884 5883 5881 5880 5879 5879 5878 5877 5876 5876 5875 5874 5874 5873 5873 5873 5872 5872 5872 5871 5871 5871 5871 5871 5871 5872 5872 5873 5874 5874 5874 5875 5875 5876 5876 5877 5878 5878 5879 5880 5881 5882
5885 5884 5883 5881 5879 5878 5878 5878 5877 5877 5876 5875 5875 5874 5873 5873 5873 5873 5872 5872 5872 5871 5871 5871 5871 5871 5872 5872 5873 5873 5874 5874 5874 5875 5875 5876 5876 5877 5878 5878 5879 5880 5881
5885 5884 5883 5881 5878 5876 5877 5878 5877 5877 5876 5875 5875 5874 5873 5873 5873 5873 5873 5872 5872 5872 5871 5871 5871 5871 5872 5872 5873 5873 5873 5874 5874 5874 5875 5875 5876 5876 5877 5877 5878 5879 5881
5886 5884 5883 5881 5879 5878 5878 5878 5877 5877 5876 5875 5875 5874 5873 5873 5873 5873 5872 5872 5872 5872 5871 5871 5871 5871 5871 5872 5872 5872 5873 5873 5874 5874 5874 5875 5875 5875 5876 5876 5877 5878 5880
5886 5884 5883 5882 5881 5880 5879 5879 5878 5877 5876 5875 5875 5874 5873 5873 5872 5872 5872 5872 5872 5871 5871 5871 5871 5871 5871 5871 5871 5872 5872 5873 5873 5873 5874 5874 5874 5874 5874 5875 5876 5877 5879
5886 5885 5884 5882 5881 5880 5880 5879 5878 5877 5876 5876 5875 5874 5873 5873 5872 5872 5871 5871 5871 5871 5871 5871 5871 5871 5871 5871 5871 5872 5872 5872 5872 5872 5872 5873 5873 5872 5873 5873 5875 5876 5878
5886 5885 5884 5883 5882 5881 5880 5879 5878 5877 5877 5876 5875 5874 5873 5872 5872 5871 5871 5871 5871 5871 5871 5871 5871 5871 5871 5871 5871 5871 5871 5871 5872 5872 5871 5871 5871 5871 5872 5872 5873 5875 5876
5886 5885 5884 5883 5882 5881 5880 5879 5878 5878 5877 5876 5874 5874 5873 5872 5871 5871 5871 5870 5870 5870 5870 5870 5870 5870 5871 5871 5871 5871 5871 5871 5871 5871 5870 5870 5870 5870 5870 5871 5872 5874 5875
5886 5885 5884 5883 5882 5881 5880 5879 5878 5877 5876 5875 5874 5873 5872 5872 5871 5871 5870 5870 5870 5870 5870 5870 5870 5870 5870 5870 5870 5870 5870 5870 5870 5870 5869 5869 5868 5868 5869 5870 5871 5872 5873
5886 5885 5884 5883 5882 5881 5880 5879 5878 5877 5876 5875 5874 5873 5872 5871 5871 5870 5870 5869 5869 5869 5869 5869 5869 5870 5870 5870 5870 5869 5869 5869 5869 5869 5868 5867 5867 5867 5868 5868 5870 5871 5872
5885 5884 5884 5883 5882 5881 5880 5879 5878 5877 5876 5875 5874 5872 5871 5871 5870 5869 5869 5869 5868 5868 5869 5869 5869 5869 5869 5869 5869 5868 5868 5868 5868 5868 5867 5867 5866 5866 5866 5867 5868 5869 5870
5885 5884 5883 5882 5882 5881 5880 5879 5878 5877 5876 5875 5873 5872 5871 5870 5869 5869 5868 5868 5868 5868 5868 5868 5868 5869 5869 5868 5868 5868 5867 5867 5867 5866 5866 5865 5865 5865 5865 5865 5867 5868 5869
5884 5883 5883 5882 5881 5880 5879 5878 5877 5876 5875 5874 5873 5872 5871 5870 5869 5868 5868 5868 5867 5868 5868 5868 5868 5868 5868 5867 5867 5867 5867 5866 5866 5865 5864 5864 5864 5864 5864 5865 5866 5867 5867
5883 5882 5882 5881 5880 5880 5879 5878 5877 5876 5875 5874 5873 5872 5870 5869 5869 5868 5867 5867 5867 5867 5867 5867 5867 5867 5867 5867 5867 5866 5865 5865 5864 5864 5863 5863 5863 5863 5864 5864 5864 5865 5866
5882 5881 5881 5880 5879 5879 5878 5877 5876 5875 5874 5873 5872 5871 5870 5869 5868 5868 5867 5866 5866 5866 5866 5866 5866 5866 5866 5866 5866 5865 5865 5864 5864 5863 5863 5862 5862 5862 5863 5863 5863 5863 5864
5880 5880 5879 5879 5878 5877 5877 5876 5875 5875 5874 5873 5872 5871 5869 5868 5868 5867 5866 5866 5865 5865 5865 5865 5865 5865 5865 5865 5864 5864 5864 5864 5863 5862 5862 5862 5861 5861 5861 5861 5861 5862 5862
5878 5878 5877 5877 5876 5876 5875 5874 5874 5874 5873 5872 5871 5870 5869 5868 5867 5866 5865 5864 5864 5864 5864 5864 5864 5864 5863 5863 5863 5863 5862 5862 5862 5861 5861 5860 5860 5860 5860 5860 5860 5860 5860
5875 5875 5875 5875 5874 5874 5873 5873 5873 5872 5871 5871 5870 5868 5867 5866 5865 5865 5864 5863 5862 5862 5862 5862 5862 5862 5862 5862 5861 5861 5861 5860 5860 5860 5860 5859 5859 5859 5859 5859 5859 5859 5859
5872 5872 5872 5872 5872 5872 5871 5871 5871 5870 5870 5869 5868 5867 5866 5865 5864 5863 5862 5862 5861 5861 5861 5861 5861 5860 5860 5860 5860 5859 5859 5859 5858 5858 5858 5858 5858 5858 5858 5858 5857 5857 5857
5868 5869 5869 5869 5869 5869 5869 5869 5868 5868 5867 5867 5866 5865 5864 5863 5862 5862 5861 5860 5860 5859 5859 5859 5859 5858 5858 5858 5858 5857 5857 5857 5856 5856 5855 5856 5856 5856 5856 5856 5856 5855 5855
5864 5864 5865 5865 5865 5866 5866 5866 5866 5865 5865 5864 5864 5863 5862 5861 5860 5860 5859 5859 5858 5857 5857 5857 5856 5856 5856 5856 5855 5855 5855 5855 5855 5855 5854 5854 5854 5854 5853 5853 5853 5853 5853
5860 5860 5860 5861 5861 5862 5863 5863 5863 5863 5862 5862 5861 5860 5860 5859 5858 5858 5857 5856 5856 5855 5854 5854 5854 5854 5853 5853 5853 5852 5852 5852 5852 5852 5852 5852 5851 5851 5851 5850 5851 5851 5851
5856 5857 5857 5857 5857 5858 5859 5859 5859 5859 5859 5858 5858 5857 5857 5856 5855 5855 5854 5854 5853 5852 5852 5851 5851 5851 5851 5850 5850 5849 5849 5849 5849 5849 5849 5848 5848 5848 5847 5847 5848 5848 5848
5851 5852 5853 5853 5853 5853 5854 5854 5855 5855 5855 5855 5854 5854 5853 5852 5852 5852 5851 5851 5850 5850 5849 5848 5848 5847 5847 5847 5846 5846 5846 5846 5846 5845 5845 5845 5845 5844 5844 5844 5844 5844 5844